Temp
11 10 10 10 10 10 10 10 10 10 10 12 15 17 18 19 20 18 24 27 27 26 26 28 28 31 32 31 28 24 25 26 30 32 33 35 32 33 33 32 33 33 32 31 32
10 10 10 10 10 10 10 10 10 11 12 13 14 17 18 18 17 23 26 27 27 26 25 29 31 32 31 30 30 26 24 28 31 33 34 34 32 33 31 34 32 33 32 32 32
11 10 10 10 10 10 10 10 10 11 13 13 17 17 17 17 22 30 27 27 27 26 27 31 32 33 31 32 29 28 24 23 28 32 34 33 31 35 33 32 32 32 32 33 32
12 11 10 10 10 10 10 11 11 12 14 16 17 18 18 15 29 26 26 26 26 26 26 31 33 32 31 30 31 29 23 24 25 33 31 35 35 35 35 33 33 32 32 33 32
14 14 13 12 13 13 13 13 14 14 15 16 17 17 17 24 29 27 26 26 25 25 28 32 33 33 31 31 31 27 30 27 28 32 33 35 34 33 33 33 33 32 32 32 33
16 16 16 16 15 16 16 17 18 18 18 18 18 17 18 26 30 27 26 25 27 27 30 33 33 34 32 31 27 30 30 30 31 31 27 33 33 34 33 34 33 32 32 33 33
16 17 17 17 17 18 18 18 19 19 19 18 18 14 23 28 29 30 28 27 28 29 32 33 34 34 34 30 32 31 29 30 28 29 27 32 31 32 33 34 33 33 33 33 33
16 17 17 17 18 18 19 19 19 19 19 18 18 17 25 30 29 29 29 29 30 30 32 33 34 34 33 32 32 30 29 28 27 27 24 29 28 32 33 33 32 33 33 33 33
16 17 17 18 18 19 19 19 18 19 19 18 15 20 28 28 29 30 31 31 31 31 32 34 34 33 34 30 30 27 24 26 25 23 24 28 28 31 34 33 32 33 33 33 33
17 17 18 18 18 19 18 18 18 18 19 17 20 25 28 30 31 31 31 32 32 33 32 32 32 31 33 30 29 25 23 23 24 23 23 27 28 31 33 33 33 33 33 33 32
17 17 18 18 19 20 19 17 21 23 23 28 29 30 31 32 30 31 31 32 32 32 30 32 31 32 33 34 30 29 26 24 22 22 23 23 23 27 29 32 31 33 33 32 32
17 18 18 19 19 20 18 24 29 29 28 30 31 31 31 31 30 32 31 31 31 31 32 33 31 34 35 34 29 29 26 23 22 22 22 22 23 22 24 25 31 29 32 32 31
17 17 18 19 19 20 22 27 28 28 28 31 31 31 31 31 31 31 32 32 31 31 32 32 34 35 35 35 27 25 25 23 23 23 22 22 22 22 23 24 25 26 28 28 30
17 18 18 19 18 25 27 28 28 29 27 29 30 31 32 32 31 33 32 33 33 32 33 33 36 36 35 35 34 26 28 27 24 24 24 25 24 21 21 23 25 26 27 28 27
17 18 18 18 16 26 29 28 28 29 24 31 31 32 33 31 32 32 33 33 32 33 33 33 34 35 34 34 35 28 30 29 26 25 27 24 26 24 22 22 24 25 28 28 25
18 18 19 18 17 24 28 28 29 27 22 30 31 31 30 32 32 32 32 33 34 33 34 34 36 35 35 35 36 32 30 28 25 23 24 27 27 25 23 25 26 27 28 28 29
19 20 20 20 27 28 28 29 27 26 29 30 31 31 31 31 32 31 31 31 31 30 31 33 34 35 35 34 35 34 29 29 26 24 28 31 28 28 26 27 28 27 29 27 27
21 22 22 24 25 27 28 28 26 28 30 31 31 32 30 31 31 31 31 31 32 32 33 32 31 34 35 35 34 33 34 32 29 30 25 24 30 32 29 30 29 28 29 26 26
22 21 22 27 26 27 28 27 27 30 31 31 31 30 30 31 31 31 32 32 33 33 32 31 33 35 35 35 35 33 33 35 30 27 31 27 29 32 30 32 30 30 29 29 29
20 25 30 29 28 29 28 27 29 31 31 31 28 30 28 29 31 31 31 33 32 33 34 32 31 35 35 35 35 35 35 33 34 30 29 27 27 24 31 32 32 30 29 30 30
21 28 31 30 29 30 28 29 30 31 31 30 29 30 29 29 30 30 29 31 32 32 33 32 31 32 34 33 33 34 33 34 35 35 32 26 25 25 29 33 34 32 31 30 31
27 27 31 30 29 31 30 30 24 31 31 31 30 30 30 29 30 29 29 30 31 31 31 32 31 29 32 35 35 35 34 34 33 33 34 33 29 29 26 25 29 35 32 30 31
27 31 31 31 29 31 30 30 31 30 30 30 30 30 30 29 28 29 29 29 30 31 29 30 31 30 31 33 34 33 34 35 35 35 33 33 32 27 25 25 35 35 34 33 32
26 30 32 32 32 31 30 30 29 30 30 30 29 30 30 30 30 27 26 31 31 31 27 29 30 30 28 26 30 32 33 34 34 33 34 35 32 32 31 33 33 34 33 31 30
28 29 31 30 31 30 30 29 29 29 30 30 29 29 29 28 27 28 29 30 30 26 29 30 28 30 28 30 31 30 31 33 33 34 33 35 34 33 33 33 34 33 33 31 30
27 29 31 30 29 29 25 29 29 29 29 29 28 29 29 28 29 27 28 29 28 29 29 30 28 29 29 30 31 31 31 32 33 34 34 34 34 34 29 29 32 32 29 29 29
29 29 30 26 30 30 29 29 28 28 29 29 28 27 28 29 29 29 30 30 30 28 25 27 29 29 28 30 30 28 31 31 32 33 34 33 30 33 29 26 22 28 28 27 27
Height
800 798 796 795 793 791 790 788 786 785 784 782 780 779 777 776 774 774 768 761 761 763 764 764 763 757 757 761 768 777 791 786 768 761 756 743 761 757 760 767 765 768 778 789 790
799 797 795 794 792 790 789 787 785 783 782 781 779 778 776 775 773 767 760 759 761 762 763 759 755 753 756 763 763 778 791 775 751 746 749 749 760 761 771 764 776 774 783 787 791
799 797 794 792 791 789 787 785 783 782 780 779 778 777 776 775 770 747 751 755 758 761 761 754 750 749 758 755 765 768 777 781 761 745 743 751 766 749 764 775 773 779 785 786 792
798 796 793 791 789 787 785 783 782 780 779 778 777 776 775 777 764 751 753 755 757 760 762 753 747 753 759 765 754 774 778 779 765 742 750 749 746 755 755 765 766 779 786 787 793
799 796 793 790 788 786 783 782 780 779 778 777 776 775 775 769 753 751 752 753 756 759 759 750 749 748 762 757 755 776 762 766 761 747 744 741 753 766 763 762 768 782 787 791 793
799 796 793 790 787 785 783 781 779 778 777 776 776 776 777 768 748 748 752 752 755 758 755 748 746 740 750 754 769 761 761 763 758 758 762 754 760 759 766 764 772 782 788 790 794
800 797 794 791 788 785 783 780 778 777 776 776 775 777 771 753 749 749 751 753 754 755 750 746 743 741 739 759 746 755 772 767 771 770 778 761 772 772 764 766 777 783 786 789 793
801 798 794 791 788 785 782 779 777 776 774 774 775 778 762 745 749 748 748 751 752 752 748 745 744 742 744 748 749 764 773 790 779 780 776 776 798 769 765 771 780 783 786 789 793
800 798 794 791 787 784 781 778 777 776 775 774 776 774 752 747 747 744 744 744 747 748 747 744 744 748 745 765 769 780 810 796 799 792 789 782 795 774 766 773 782 783 786 789 793
800 797 793 789 786 782 780 778 776 775 774 777 774 771 749 742 740 742 743 742 744 744 747 749 752 759 751 760 787 800 809 807 805 802 799 793 792 777 770 775 780 782 784 788 793
799 796 792 788 784 780 778 778 777 773 769 757 750 743 737 736 742 741 742 742 744 747 761 751 764 762 745 739 758 773 793 805 806 805 808 813 810 791 784 778 783 781 784 789 791
798 794 791 786 782 779 777 772 758 759 757 747 743 741 740 740 746 740 743 746 748 759 749 751 764 740 727 734 762 766 792 810 812 810 813 818 816 810 806 799 785 789 787 789 793
796 792 789 784 780 777 774 766 762 759 756 743 739 740 740 741 740 740 740 738 748 756 749 753 737 729 730 730 767 791 792 806 813 816 816 821 829 824 812 809 801 797 797 797 795
794 790 786 782 781 772 765 763 762 760 770 754 745 738 738 736 740 731 737 737 740 749 744 743 722 725 733 734 736 785 775 783 796 811 822 807 835 828 821 814 807 799 795 795 799
791 786 782 781 777 767 762 763 763 760 806 745 740 736 730 738 729 735 734 734 744 741 739 745 737 733 738 736 726 779 764 775 790 805 804 819 818 816 814 820 806 801 795 790 798
787 781 779 780 777 769 764 763 761 779 811 754 738 743 745 734 730 731 738 734 728 737 733 733 714 722 728 724 723 740 768 784 799 815 830 799 800 813 814 787 776 780 785 791 795
783 780 779 778 767 765 765 762 777 788 752 754 745 740 739 740 736 739 748 752 754 762 757 740 736 724 722 735 727 739 775 790 814 828 801 759 795 778 767 765 759 766 771 780 787
782 779 778 772 771 768 765 767 789 763 750 743 741 737 749 741 739 741 747 753 741 738 740 755 763 736 722 730 740 749 748 768 804 796 817 793 777 751 739 743 751 759 771 781 787
780 778 773 766 768 768 764 781 776 753 745 743 744 750 755 742 745 743 740 742 733 729 747 755 745 715 717 719 724 745 757 731 779 790 784 794 774 743 744 745 751 755 765 772 778
781 776 762 763 765 764 766 772 760 747 743 742 766 752 772 756 750 748 744 727 735 727 722 742 757 717 720 720 721 729 724 756 744 792 803 797 792 806 757 747 742 752 756 758 767
782 769 758 760 761 760 772 763 755 749 748 753 760 755 759 759 753 754 762 747 738 738 729 737 749 744 726 740 743 741 746 741 732 740 772 806 807 782 759 739 737 739 743 752 755
776 775 756 759 761 747 758 756 763 751 748 749 750 749 753 756 756 759 760 755 746 743 750 737 745 768 747 719 719 723 735 737 755 760 743 749 777 756 752 753 746 727 735 745 750
774 755 755 755 769 754 756 759 753 755 755 753 753 752 752 758 767 763 755 751 747 750 759 749 751 767 753 737 724 738 729 728 733 731 750 759 764 752 744 741 711 720 726 737 746
777 764 750 749 747 750 757 758 762 757 759 759 762 756 757 757 750 769 771 746 746 748 755 753 754 755 778 789 757 750 739 731 734 753 748 741 750 739 738 732 726 725 732 739 747
773 763 751 761 755 756 757 762 765 765 758 758 763 764 765 771 771 765 756 749 748 755 754 753 770 756 767 758 756 757 751 741 743 736 749 735 743 729 727 729 728 724 726 737 745
776 764 754 757 763 763 773 767 769 763 768 766 771 764 766 771 763 773 762 758 766 755 757 751 769 760 769 758 752 754 747 744 736 732 735 736 744 728 743 734 736 738 741 740 747
768 766 764 771 761 761 763 766 771 770 767 766 770 775 771 763 757 756 754 749 749 764 776 768 762 766 778 759 759 778 752 749 738 732 734 750 753 735 747 761 771 760 755 754 757
Wind_Speed
12 12 12 12 11 11 11 12 12 11 11 12 12 11 11 14 13 9 11 6 16 8 11 12 17 18 13 2 7 5 3 5 6 16 12 17 18 13 19 11 17 12 20 20 20
12 12 12 11 11 11 11 11 11 11 11 12 12 11 10 12 15 20 16 16 10 9 13 17 15 13 11 10 7 4 2 3 5 14 13 16 14 13 3 10 14 21 24 24 22
12 12 12 11 11 10 11 11 11 11 11 11 10 9 9 10 11 2 13 21 13 15 18 17 15 14 12 7 5 4 4 6 8 6 18 19 15 17 17 14 16 23 21 20 20
13 12 12 12 11 11 11 11 11 11 11 9 8 8 8 7 2 7 9 11 16 16 18 20 16 15 9 10 5 7 12 3 16 7 11 16 16 12 11 15 22 20 19 18 16
15 14 13 13 12 11 10 10 11 10 9 8 7 6 5 8 10 5 4 8 14 17 20 16 14 15 8 4 6 7 2 16 4 5 4 13 12 11 16 19 23 20 18 17 16
17 17 16 14 13 11 10 9 8 8 7 7 5 3 6 11 4 5 6 14 15 19 21 18 11 13 2 7 3 6 8 7 1 7 7 4 15 8 19 19 22 21 19 17 17
16 16 17 16 14 12 11 10 8 7 7 6 4 4 10 14 2 4 9 13 16 20 18 18 19 11 7 5 7 9 11 8 3 6 6 3 14 13 14 19 21 20 18 17 16
16 17 18 19 17 15 14 11 8 6 4 3 4 4 7 2 6 6 11 13 16 17 20 16 14 13 14 12 1 7 6 9 2 6 4 4 6 17 17 19 20 19 17 15 16
15 17 19 20 19 16 16 9 6 6 3 3 4 9 11 3 13 12 13 15 16 16 16 15 13 12 16 11 7 4 4 8 0 8 5 3 9 11 18 19 19 17 17 15 15
16 17 19 22 21 15 11 7 8 5 4 7 14 10 12 10 14 11 13 12 12 11 7 6 7 13 15 10 8 8 6 9 3 3 8 3 9 14 17 18 18 18 17 16 17
17 19 21 23 22 16 12 6 5 6 12 11 14 13 2 10 7 13 13 12 12 10 13 15 12 15 18 10 4 16 7 5 13 8 3 5 2 5 8 12 10 16 15 11 15
18 20 22 23 21 16 9 6 10 10 12 17 6 6 8 3 9 12 14 11 12 13 15 13 16 18 18 7 7 12 14 12 9 7 3 4 6 9 8 12 4 3 13 16 12
19 22 22 25 19 13 12 16 10 10 7 5 6 11 7 8 11 13 14 16 13 15 16 17 13 19 20 14 14 8 16 13 9 6 6 3 3 7 7 8 12 5 3 9 18
21 23 26 21 10 11 17 3 7 6 6 8 8 4 5 10 9 14 16 13 8 13 16 15 17 14 17 14 12 12 15 20 24 13 5 15 2 3 9 14 10 9 9 9 7
24 28 20 9 13 10 6 6 9 7 1 4 8 3 5 11 11 13 14 16 14 12 11 11 13 13 13 6 7 9 18 15 17 9 9 16 4 4 14 16 20 15 15 15 3
28 18 6 4 9 13 10 9 8 6 0 4 5 8 7 10 7 11 11 15 13 13 13 17 8 8 14 4 13 21 16 16 9 5 5 15 10 7 14 24 22 22 19 18 15
22 8 9 9 5 3 8 8 5 6 9 4 9 4 14 4 9 7 12 13 11 10 11 13 8 11 7 16 9 8 20 7 6 5 11 15 13 11 28 24 23 22 24 18 13
12 5 6 13 9 8 9 9 8 18 7 1 6 6 7 4 4 9 12 12 16 18 10 12 12 14 16 19 10 12 16 6 4 5 4 11 8 4 22 25 23 16 19 17 17
12 10 10 9 8 6 7 3 5 8 6 1 7 10 5 7 4 6 13 12 15 16 14 9 14 16 11 15 10 13 14 13 7 5 8 5 6 6 18 20 21 23 20 24 25
9 14 4 2 4 8 7 6 7 7 6 8 7 6 0 11 5 7 5 2 7 13 10 4 10 14 14 11 17 15 7 13 11 7 9 4 4 6 12 16 23 23 26 25 24
5 6 3 6 8 8 7 6 3 5 11 9 4 11 10 1 5 8 2 8 6 10 8 8 7 6 10 10 13 12 11 11 15 10 9 4 0 13 12 5 13 24 23 23 25
9 7 7 4 9 8 7 5 6 6 5 7 6 6 8 7 7 7 3 2 10 12 12 11 9 7 12 10 14 16 16 12 7 10 10 7 7 11 10 22 20 9 27 22 23
5 6 6 9 6 1 5 3 8 12 6 8 6 5 9 7 6 7 3 6 3 8 10 11 6 9 13 6 13 14 14 16 16 14 13 9 7 17 17 17 5 12 8 19 17
5 3 4 6 5 7 5 4 6 3 2 5 7 6 6 9 6 3 14 3 4 8 7 5 13 13 7 6 11 8 12 13 14 12 12 10 17 15 19 11 8 12 16 17 14
5 12 4 5 5 8 10 4 6 1 2 2 5 3 8 7 13 7 13 5 9 4 6 5 12 13 6 7 12 15 11 15 18 15 13 9 13 18 13 12 11 10 17 18 15
7 10 1 4 3 9 6 3 8 6 1 6 4 10 9 11 9 3 11 7 8 5 10 12 12 10 8 8 13 11 5 16 9 16 12 12 3 15 11 12 8 5 13 13 13
10 11 6 4 6 9 7 7 8 4 2 5 5 8 12 8 11 11 11 10 4 3 4 12 11 9 12 6 9 10 12 10 10 8 7 10 14 8 7 12 12 3 3 9 10
Wind_Direction
337 334 330 326 322 319 317 316 315 313 313 312 309 309 311 308 299 273 250 240 208 251 197 194 216 219 202 171 115 118 242 193 203 162 136 145 90 90 126 192 150 119 131 148 150
337 333 329 327 322 316 311 308 307 307 308 309 306 308 310 315 301 263 238 241 215 212 200 214 207 201 207 173 193 151 282 284 298 154 145 132 127 134 127 145 125 121 123 162 143
337 333 331 327 322 315 306 304 301 302 303 304 304 306 312 328 276 258 207 215 224 207 214 219 208 205 206 230 196 221 208 316 353 203 162 161 156 158 157 154 139 131 138 151 143
342 339 337 334 328 319 311 306 304 300 300 300 299 302 305 300 319 115 161 206 220 206 223 240 236 219 206 236 246 260 125 185 291 78 232 148 163 129 186 127 124 133 152 140 161
354 347 341 334 331 329 322 312 306 303 298 293 296 305 322 230 251 124 217 216 190 195 216 226 228 223 203 261 270 228 110 172 224 18 52 149 128 113 91 119 129 143 165 152 150
3 1 354 344 336 339 339 333 326 319 306 296 289 299 258 251 21 138 149 168 188 195 214 226 227 232 311 245 44 246 127 111 158 91 19 137 123 178 133 137 136 155 154 167 151
5 2 0 353 344 341 337 334 325 323 317 289 266 308 263 250 336 251 171 187 197 199 218 222 234 252 231 335 211 157 140 149 69 55 41 315 165 142 144 146 145 158 163 162 161
357 0 357 352 343 334 325 310 304 305 304 243 221 250 260 79 248 213 188 192 204 210 239 220 243 268 271 218 152 149 154 164 93 3 197 334 94 139 156 148 153 159 163 159 160
349 354 350 347 341 332 327 318 308 304 276 172 253 213 254 171 212 205 191 196 188 211 219 241 229 246 253 226 218 126 29 258 247 18 0 25 139 157 160 155 167 161 161 163 148
342 345 344 343 338 331 326 314 283 278 249 245 266 257 257 241 192 175 194 203 188 208 214 226 230 239 239 243 235 147 133 219 199 19 33 269 149 171 165 160 171 172 163 170 155
333 336 338 337 332 323 315 283 210 200 233 267 137 255 104 102 119 197 172 188 200 201 213 202 223 225 227 206 178 115 115 46 90 66 107 302 89 276 35 181 176 175 160 165 152
327 330 330 330 324 314 293 254 28 330 299 224 270 284 321 180 194 203 191 187 196 212 221 211 226 237 243 178 127 101 100 94 88 100 87 205 220 270 325 318 185 51 166 172 142
323 323 324 322 315 293 243 284 326 327 276 135 181 217 178 235 217 182 206 215 190 219 223 241 221 225 249 241 81 175 143 156 129 114 48 147 356 207 265 280 301 309 270 259 151
321 318 316 313 303 248 236 302 297 321 280 129 180 124 188 222 222 175 206 217 208 229 231 234 258 226 228 239 220 108 155 140 142 164 186 200 173 230 247 265 263 264 245 235 241
320 316 312 275 304 280 4 306 334 271 345 335 117 59 186 232 110 173 195 240 265 221 230 228 246 258 231 232 205 164 163 143 158 170 126 204 124 205 175 231 244 221 217 234 178
324 321 296 239 241 261 306 311 277 242 279 197 142 183 205 233 188 134 191 247 258 284 226 253 242 240 253 215 259 133 130 130 119 155 257 206 199 196 197 207 217 209 205 214 196
327 312 234 268 286 339 319 282 234 315 205 196 168 170 217 218 152 166 193 210 236 222 217 231 238 280 231 234 144 177 160 185 201 187 233 193 198 211 209 209 212 198 197 207 204
315 260 265 241 292 310 304 261 280 220 51 49 288 237 80 187 224 171 191 218 231 255 222 205 212 206 218 243 175 210 232 223 226 345 314 327 320 131 191 201 206 202 193 188 220
290 262 238 245 227 297 283 214 270 39 319 317 202 243 159 191 239 264 214 204 213 236 260 317 220 179 193 234 223 195 239 243 115 204 239 135 305 2 164 193 193 200 194 193 193
309 272 300 164 208 244 269 304 29 6 311 284 9 91 196 313 232 181 305 294 9 317 262 294 265 194 190 197 251 272 238 230 237 174 255 347 333 205 219 183 181 187 197 192 199
278 258 104 220 232 251 253 52 96 34 329 1 278 292 173 279 50 359 72 291 57 308 336 300 315 332 178 195 232 229 247 258 271 231 242 160 310 287 275 259 199 184 186 189 192
277 270 129 265 270 217 53 28 307 71 215 337 304 349 46 348 314 295 142 21 351 319 312 223 289 199 239 235 209 253 223 234 253 252 286 282 163 138 57 323 273 198 183 179 194
271 248 190 246 287 261 115 125 342 358 27 352 13 358 359 310 314 16 291 167 279 288 24 342 282 253 228 230 201 228 244 215 244 275 280 274 129 139 157 234 15 126 142 170 170
280 296 180 226 297 322 194 153 152 120 56 314 331 288 284 278 217 70 294 255 146 263 12 305 274 291 31 287 285 317 242 265 263 225 252 253 135 161 171 166 160 152 151 152 164
250 296 26 344 54 13 11 344 336 52 62 200 221 268 346 326 346 339 313 179 191 169 265 262 267 292 39 285 246 265 296 280 252 257 266 283 360 163 160 162 181 164 151 150 167
279 338 168 38 101 277 163 69 327 42 29 359 321 346 323 300 333 2 316 313 38 286 214 257 259 289 291 240 287 264 211 290 280 234 259 280 309 81 46 23 136 156 117 128 154
336 313 291 140 235 266 57 50 16 13 114 277 345 301 286 341 1 340 307 284 232 170 313 299 271 275 273 282 277 292 272 207 272 288 280 236 17 50 83 112 11 104 120 134 130